N2STN CYYR-KBGR

Flight info

Callsign N2STN
Flight time N/A
Altitude 16000
Route MEALY1/08 FRAZR DCT OMPOG DCT TAFFY DCT IMAMA DCT BGR
Aircraft S22T/L-SDGRY/S

Departure

Time 2026-05-07 16:13
Airport Goose Bay Airport (CYYR)

Arrival

Time N/A
Airport Bangor International Airport (KBGR)
Time Latitude Longitude Altitude Speed Heading
2026-05-07 16:13 53.32386 -60.17196 8339 ft 113 kts 225°
2026-05-07 16:13 53.32017 -60.18319 8605 ft 108 kts 219°
2026-05-07 16:13 53.31604 -60.19342 8889 ft 107 kts 218°
2026-05-07 16:13 53.31200 -60.20400 9139 ft 108 kts 219°
2026-05-07 16:14 53.30789 -60.21456 9451 ft 108 kts 219°
2026-05-07 16:14 53.30376 -60.22493 9667 ft 109 kts 218°
2026-05-07 16:14 53.29945 -60.23552 9879 ft 110 kts 218°
2026-05-07 16:14 53.29493 -60.24564 10118 ft 109 kts 216°
2026-05-07 16:15 53.29025 -60.25563 10329 ft 110 kts 216°
2026-05-07 16:15 53.28549 -60.26574 10541 ft 111 kts 216°
2026-05-07 16:15 53.28067 -60.27592 10770 ft 112 kts 216°
2026-05-07 16:15 53.27584 -60.28611 10997 ft 112 kts 216°
2026-05-07 16:16 53.27094 -60.29632 11206 ft 113 kts 216°
2026-05-07 16:16 53.26597 -60.30660 11416 ft 114 kts 217°
2026-05-07 16:16 53.26086 -60.31689 11600 ft 116 kts 215°
2026-05-07 16:16 53.25499 -60.32567 11817 ft 113 kts 208°
2026-05-07 16:17 53.24886 -60.33387 11998 ft 110 kts 208°
2026-05-07 16:17 53.24259 -60.34209 12126 ft 115 kts 208°
2026-05-07 16:17 53.23628 -60.35041 12316 ft 116 kts 208°
2026-05-07 16:17 53.22991 -60.35876 12517 ft 117 kts 208°
2026-05-07 16:18 53.22349 -60.36712 12713 ft 117 kts 208°
2026-05-07 16:18 53.21698 -60.37528 12906 ft 116 kts 205°
2026-05-07 16:18 53.21023 -60.38252 13074 ft 117 kts 204°
2026-05-07 16:18 53.20334 -60.38992 13250 ft 118 kts 204°
2026-05-07 16:19 53.19636 -60.39730 13430 ft 119 kts 204°
2026-05-07 16:19 53.18932 -60.40469 13591 ft 120 kts 204°
2026-05-07 16:19 53.18226 -60.41214 13756 ft 121 kts 204°
2026-05-07 16:19 53.17525 -60.41947 13933 ft 121 kts 204°
2026-05-07 16:20 53.16814 -60.42692 14102 ft 121 kts 204°
2026-05-07 16:20 53.16102 -60.43433 14297 ft 121 kts 204°
2026-05-07 16:20 53.15389 -60.44179 14484 ft 121 kts 204°
2026-05-07 16:20 53.14677 -60.44925 14668 ft 121 kts 204°
2026-05-07 16:21 53.13964 -60.45679 14847 ft 121 kts 204°
2026-05-07 16:21 53.13249 -60.46430 15024 ft 122 kts 205°
2026-05-07 16:21 53.12537 -60.47186 15215 ft 122 kts 204°
2026-05-07 16:21 53.11816 -60.47940 15414 ft 123 kts 205°
2026-05-07 16:22 53.11102 -60.48722 15613 ft 123 kts 205°
2026-05-07 16:22 53.10385 -60.49516 15839 ft 124 kts 205°
2026-05-07 16:22 53.09653 -60.50338 15897 ft 132 kts 206°
2026-05-07 16:22 53.08938 -60.51400 15900 ft 144 kts 215°
2026-05-07 16:23 53.08249 -60.52661 15894 ft 150 kts 216°
2026-05-07 16:23 53.07528 -60.53931 15890 ft 153 kts 216°
2026-05-07 16:23 53.06798 -60.55230 15892 ft 155 kts 216°
2026-05-07 16:23 53.06045 -60.56513 15891 ft 155 kts 213°
2026-05-07 16:24 53.05210 -60.57634 15888 ft 155 kts 209°
2026-05-07 16:24 53.04338 -60.58703 15879 ft 157 kts 209°
2026-05-07 16:24 53.03483 -60.59796 15870 ft 153 kts 210°
2026-05-07 16:24 53.02655 -60.60871 15866 ft 149 kts 209°
2026-05-07 16:25 53.01843 -60.61930 15856 ft 147 kts 209°
2026-05-07 16:25 53.01039 -60.62969 15852 ft 146 kts 208°
2026-05-07 16:25 53.00166 -60.63750 15851 ft 141 kts 199°
2026-05-07 16:25 52.99271 -60.64408 15844 ft 141 kts 201°
2026-05-07 16:26 52.98543 -60.65584 15846 ft 152 kts 222°
2026-05-07 16:26 52.97913 -60.66995 15849 ft 151 kts 219°
2026-05-07 16:26 52.97201 -60.68241 15854 ft 146 kts 212°
2026-05-07 16:26 52.96418 -60.69306 15858 ft 146 kts 211°
2026-05-07 16:27 52.95692 -60.70526 15858 ft 151 kts 218°
2026-05-07 16:27 52.95009 -60.71847 15861 ft 151 kts 218°
2026-05-07 16:27 52.94316 -60.73162 15848 ft 151 kts 217°
2026-05-07 16:27 52.93603 -60.74443 15847 ft 152 kts 216°
2026-05-07 16:28 52.92888 -60.75724 15846 ft 151 kts 216°
2026-05-07 16:28 52.92174 -60.77002 15850 ft 152 kts 216°
2026-05-07 16:28 52.91456 -60.78288 15847 ft 152 kts 216°
2026-05-07 16:28 52.90736 -60.79571 15848 ft 152 kts 216°
2026-05-07 16:29 52.90005 -60.80845 15850 ft 153 kts 216°
2026-05-07 16:29 52.89264 -60.82105 15851 ft 152 kts 216°
2026-05-07 16:29 52.88499 -60.83315 15849 ft 151 kts 213°
2026-05-07 16:29 52.87694 -60.84416 15846 ft 150 kts 211°
2026-05-07 16:30 52.86886 -60.85525 15846 ft 151 kts 212°
2026-05-07 16:30 52.86087 -60.86657 15835 ft 151 kts 212°
2026-05-07 16:30 52.85291 -60.87788 15835 ft 151 kts 212°
2026-05-07 16:30 52.84496 -60.88919 15833 ft 151 kts 212°
2026-05-07 16:31 52.83698 -60.90054 15833 ft 151 kts 212°
2026-05-07 16:31 52.82911 -60.91175 15834 ft 151 kts 212°
2026-05-07 16:31 52.82112 -60.92310 15838 ft 152 kts 212°
2026-05-07 16:31 52.81310 -60.93451 15842 ft 153 kts 212°
2026-05-07 16:32 52.80498 -60.94604 15843 ft 155 kts 213°
2026-05-07 16:32 52.79672 -60.95769 15841 ft 157 kts 211°
2026-05-07 16:32 52.78827 -60.96945 15836 ft 161 kts 213°
2026-05-07 16:32 52.77996 -60.98162 15821 ft 158 kts 213°
2026-05-07 16:33 52.77172 -60.99334 15820 ft 156 kts 212°
2026-05-07 16:33 52.76350 -61.00494 15818 ft 155 kts 212°
2026-05-07 16:33 52.75530 -61.01651 15817 ft 155 kts 212°
2026-05-07 16:33 52.74721 -61.02795 15817 ft 155 kts 212°
2026-05-07 16:34 52.74657 -61.02886 15817 ft 155 kts 212°
2026-05-07 16:34 52.73839 -61.04041 15816 ft 155 kts 212°
2026-05-07 16:34 52.73019 -61.05199 15814 ft 155 kts 212°
2026-05-07 16:35 52.72205 -61.06355 15819 ft 154 kts 212°
2026-05-07 16:35 52.71388 -61.07503 15819 ft 154 kts 212°
2026-05-07 16:35 52.70570 -61.08655 15823 ft 155 kts 212°
2026-05-07 16:35 52.69747 -61.09814 15819 ft 156 kts 213°
2026-05-07 16:36 52.68922 -61.10979 15821 ft 157 kts 213°
2026-05-07 16:36 52.68092 -61.12148 15821 ft 157 kts 213°
2026-05-07 16:36 52.67261 -61.13319 15824 ft 158 kts 213°
2026-05-07 16:36 52.66424 -61.14498 15822 ft 158 kts 213°
2026-05-07 16:37 52.65586 -61.15677 15822 ft 159 kts 213°
2026-05-07 16:37 52.64743 -61.16862 15822 ft 160 kts 213°
2026-05-07 16:37 52.63895 -61.18055 15819 ft 159 kts 213°
2026-05-07 16:37 52.63052 -61.19239 15820 ft 160 kts 213°
2026-05-07 16:38 52.62207 -61.20426 15812 ft 159 kts 213°
2026-05-07 16:38 52.61374 -61.21594 15811 ft 159 kts 213°
2026-05-07 16:38 52.60522 -61.22791 15811 ft 159 kts 213°
2026-05-07 16:38 52.59690 -61.23956 15811 ft 159 kts 213°
2026-05-07 16:39 52.58851 -61.25135 15806 ft 158 kts 213°
2026-05-07 16:39 52.58006 -61.26317 15809 ft 157 kts 213°
2026-05-07 16:39 52.57175 -61.27475 15813 ft 161 kts 213°
2026-05-07 16:39 52.56307 -61.28694 15813 ft 164 kts 213°
2026-05-07 16:40 52.55442 -61.29898 15814 ft 166 kts 213°
2026-05-07 16:40 52.54555 -61.31139 15810 ft 166 kts 213°
2026-05-07 16:40 52.53674 -61.32362 15812 ft 166 kts 214°
2026-05-07 16:40 52.52796 -61.33604 15812 ft 167 kts 213°
2026-05-07 16:41 52.51923 -61.34831 15811 ft 168 kts 213°
2026-05-07 16:41 52.51030 -61.36066 15811 ft 169 kts 213°
2026-05-07 16:41 52.50124 -61.37299 15807 ft 170 kts 213°
2026-05-07 16:41 52.49206 -61.38534 15807 ft 171 kts 213°
2026-05-07 16:42 52.48317 -61.39859 15811 ft 174 kts 216°
2026-05-07 16:42 52.47415 -61.41174 15811 ft 174 kts 214°
2026-05-07 16:42 52.46494 -61.42464 15797 ft 174 kts 212°
2026-05-07 16:42 52.45568 -61.43746 15790 ft 174 kts 212°
2026-05-07 16:43 52.44637 -61.44973 15787 ft 169 kts 212°
2026-05-07 16:43 52.43740 -61.46172 15788 ft 165 kts 213°
2026-05-07 16:43 52.42870 -61.47381 15788 ft 163 kts 213°
2026-05-07 16:43 52.42012 -61.48578 15792 ft 161 kts 213°
2026-05-07 16:44 52.41161 -61.49763 15789 ft 161 kts 213°
2026-05-07 16:44 52.40309 -61.50950 15790 ft 160 kts 213°
2026-05-07 16:44 52.39462 -61.52127 15789 ft 160 kts 213°
2026-05-07 16:44 52.38614 -61.53300 15788 ft 159 kts 213°
2026-05-07 16:45 52.37766 -61.54473 15791 ft 159 kts 213°
2026-05-07 16:45 52.36923 -61.55640 15788 ft 159 kts 213°
2026-05-07 16:45 52.36081 -61.56804 15788 ft 158 kts 213°
2026-05-07 16:45 52.35242 -61.57963 15787 ft 158 kts 213°
2026-05-07 16:46 52.34398 -61.59129 15792 ft 160 kts 213°
2026-05-07 16:46 52.33546 -61.60302 15787 ft 160 kts 213°
2026-05-07 16:46 52.32702 -61.61466 15792 ft 159 kts 213°
2026-05-07 16:46 52.31856 -61.62634 15793 ft 159 kts 213°
2026-05-07 16:47 52.31007 -61.63804 15794 ft 160 kts 213°
2026-05-07 16:47 52.30156 -61.64975 15803 ft 160 kts 213°
2026-05-07 16:47 52.29306 -61.66146 15802 ft 160 kts 213°
2026-05-07 16:47 52.28455 -61.67317 15803 ft 160 kts 213°
2026-05-07 16:48 52.27604 -61.68483 15803 ft 160 kts 213°
2026-05-07 16:48 52.26752 -61.69658 15801 ft 160 kts 213°
2026-05-07 16:48 52.25889 -61.70789 15798 ft 159 kts 213°
2026-05-07 16:48 52.25059 -61.71979 15799 ft 159 kts 214°
2026-05-07 16:49 52.24221 -61.73147 15801 ft 159 kts 213°
2026-05-07 16:49 52.23368 -61.74315 15800 ft 160 kts 213°
2026-05-07 16:49 52.22503 -61.75452 15797 ft 160 kts 214°
2026-05-07 16:49 52.21676 -61.76641 15797 ft 160 kts 214°
2026-05-07 16:50 52.20825 -61.77819 15799 ft 160 kts 213°
2026-05-07 16:50 52.19968 -61.78981 15799 ft 160 kts 213°
2026-05-07 16:50 52.19106 -61.80155 15799 ft 164 kts 213°
2026-05-07 16:50 52.18224 -61.81350 15795 ft 166 kts 213°
2026-05-07 16:51 52.17338 -61.82556 15796 ft 167 kts 214°
2026-05-07 16:51 52.16449 -61.83768 15800 ft 167 kts 214°
2026-05-07 16:51 52.15553 -61.84996 15797 ft 169 kts 214°
2026-05-07 16:51 52.14650 -61.86222 15796 ft 169 kts 214°
2026-05-07 16:52 52.13753 -61.87444 15794 ft 168 kts 214°
2026-05-07 16:52 52.12850 -61.88673 15795 ft 169 kts 214°
2026-05-07 16:52 52.11951 -61.89897 15791 ft 168 kts 214°
2026-05-07 16:52 52.11053 -61.91118 15794 ft 168 kts 214°
2026-05-07 16:53 52.10148 -61.92350 15793 ft 171 kts 214°
2026-05-07 16:53 52.09541 -61.93173 15789 ft 171 kts 215°
2026-05-07 16:53 52.08321 -61.94833 15789 ft 171 kts 214°
2026-05-07 16:53 52.07407 -61.96073 15790 ft 171 kts 215°
2026-05-07 16:54 52.06491 -61.97315 15788 ft 172 kts 214°
2026-05-07 16:54 52.05568 -61.98569 15794 ft 174 kts 215°
2026-05-07 16:54 52.04636 -61.99835 15796 ft 176 kts 215°
2026-05-07 16:54 52.03690 -62.01117 15794 ft 178 kts 215°
2026-05-07 16:55 52.02738 -62.02406 15796 ft 178 kts 215°
2026-05-07 16:55 52.02106 -62.03260 15790 ft 179 kts 215°
2026-05-07 16:55 52.01149 -62.04556 15790 ft 179 kts 215°
2026-05-07 16:55 51.99887 -62.06261 15788 ft 178 kts 215°
2026-05-07 16:56 51.99250 -62.07121 15790 ft 177 kts 215°
2026-05-07 16:56 51.98308 -62.08396 15785 ft 175 kts 215°
2026-05-07 16:56 51.96453 -62.10898 15779 ft 172 kts 214°
2026-05-07 16:57 51.95529 -62.12142 15777 ft 172 kts 214°
2026-05-07 16:57 51.94607 -62.13383 15774 ft 172 kts 214°
2026-05-07 16:57 51.93687 -62.14623 15776 ft 172 kts 215°
2026-05-07 16:57 51.92466 -62.16265 15771 ft 171 kts 214°
2026-05-07 16:58 51.91849 -62.17089 15783 ft 170 kts 214°
2026-05-07 16:58 51.90940 -62.18317 15785 ft 170 kts 215°
2026-05-07 16:58 51.90024 -62.19551 15789 ft 172 kts 215°
2026-05-07 16:58 51.89098 -62.20795 15792 ft 174 kts 215°
2026-05-07 16:59 51.88177 -62.22029 15791 ft 175 kts 215°
2026-05-07 16:59 51.87233 -62.23295 15792 ft 176 kts 215°
2026-05-07 16:59 51.86290 -62.24565 15790 ft 177 kts 215°
2026-05-07 16:59 51.85341 -62.25837 15790 ft 177 kts 215°
2026-05-07 17:00 51.84391 -62.27107 15787 ft 176 kts 215°
2026-05-07 17:00 51.83451 -62.28365 15787 ft 175 kts 215°
2026-05-07 17:00 51.82516 -62.29616 15788 ft 175 kts 215°
2026-05-07 17:00 51.81581 -62.30865 15783 ft 173 kts 215°
2026-05-07 17:01 51.80653 -62.32105 15782 ft 173 kts 215°
2026-05-07 17:01 51.79726 -62.33342 15780 ft 172 kts 214°
2026-05-07 17:01 51.78805 -62.34573 15780 ft 172 kts 215°
2026-05-07 17:01 51.77881 -62.35806 15779 ft 172 kts 215°
2026-05-07 17:02 51.76960 -62.37036 15779 ft 171 kts 215°
2026-05-07 17:02 51.76041 -62.38258 15775 ft 171 kts 215°
2026-05-07 17:02 51.75123 -62.39481 15774 ft 171 kts 215°
2026-05-07 17:02 51.74204 -62.40701 15774 ft 171 kts 214°
2026-05-07 17:03 51.73281 -62.41929 15776 ft 172 kts 215°
2026-05-07 17:03 51.72359 -62.43157 15774 ft 172 kts 215°
2026-05-07 17:03 51.71434 -62.44386 15776 ft 172 kts 215°
2026-05-07 17:03 51.70511 -62.45613 15775 ft 172 kts 216°
2026-05-07 17:04 51.69602 -62.46821 15778 ft 172 kts 216°
2026-05-07 17:04 51.68679 -62.48044 15775 ft 172 kts 216°
2026-05-07 17:04 51.67760 -62.49265 15778 ft 171 kts 216°
2026-05-07 17:04 51.66846 -62.50476 15779 ft 170 kts 216°
2026-05-07 17:05 51.65935 -62.51680 15777 ft 170 kts 216°
2026-05-07 17:05 51.65016 -62.52895 15776 ft 171 kts 216°
2026-05-07 17:05 51.64099 -62.54109 15776 ft 171 kts 216°
2026-05-07 17:05 51.63180 -62.55326 15776 ft 172 kts 216°
2026-05-07 17:06 51.62256 -62.56548 15776 ft 172 kts 216°
2026-05-07 17:06 51.61334 -62.57766 15776 ft 172 kts 216°
2026-05-07 17:06 51.60411 -62.58984 15778 ft 172 kts 216°
2026-05-07 17:06 51.59488 -62.60202 15779 ft 172 kts 216°
2026-05-07 17:07 51.58563 -62.61423 15782 ft 172 kts 216°
2026-05-07 17:07 51.57631 -62.62651 15783 ft 173 kts 216°
2026-05-07 17:07 51.56700 -62.63881 15784 ft 173 kts 216°
2026-05-07 17:07 51.55766 -62.65108 15783 ft 174 kts 215°
2026-05-07 17:08 51.54834 -62.66336 15783 ft 172 kts 216°
2026-05-07 17:08 51.53908 -62.67551 15783 ft 172 kts 216°
2026-05-07 17:08 51.52979 -62.68773 15782 ft 173 kts 216°
2026-05-07 17:08 51.52050 -62.69994 15777 ft 173 kts 216°
2026-05-07 17:09 51.51122 -62.71213 15777 ft 173 kts 216°
2026-05-07 17:09 51.50190 -62.72436 15779 ft 174 kts 216°
2026-05-07 17:09 51.49251 -62.73667 15778 ft 174 kts 216°
2026-05-07 17:09 51.48314 -62.74897 15776 ft 174 kts 216°
2026-05-07 17:10 51.47380 -62.76120 15777 ft 173 kts 216°
2026-05-07 17:10 51.46446 -62.77343 15777 ft 174 kts 216°
2026-05-07 17:10 51.45511 -62.78566 15776 ft 173 kts 216°
2026-05-07 17:10 51.44584 -62.79779 15781 ft 172 kts 216°
2026-05-07 17:11 51.43658 -62.81001 15781 ft 172 kts 217°
2026-05-07 17:11 51.42738 -62.82238 15784 ft 173 kts 215°
2026-05-07 17:11 51.41789 -62.83426 15785 ft 174 kts 215°
2026-05-07 17:11 51.40849 -62.84645 15787 ft 174 kts 216°
2026-05-07 17:12 51.39908 -62.85873 15789 ft 174 kts 216°
2026-05-07 17:12 51.38970 -62.87101 15787 ft 174 kts 216°
2026-05-07 17:12 51.38030 -62.88329 15788 ft 174 kts 216°
2026-05-07 17:12 51.37087 -62.89558 15788 ft 176 kts 216°
2026-05-07 17:13 51.36139 -62.90791 15788 ft 176 kts 216°
2026-05-07 17:13 51.35201 -62.92012 15785 ft 175 kts 216°
2026-05-07 17:13 51.34258 -62.93240 15788 ft 175 kts 216°
2026-05-07 17:13 51.33317 -62.94466 15785 ft 174 kts 216°
2026-05-07 17:14 51.32382 -62.95681 15783 ft 173 kts 216°
2026-05-07 17:14 51.31451 -62.96886 15782 ft 172 kts 216°
2026-05-07 17:14 51.30524 -62.98087 15783 ft 172 kts 215°
2026-05-07 17:14 51.29598 -62.99289 15785 ft 172 kts 215°
2026-05-07 17:15 51.28670 -63.00490 15783 ft 171 kts 215°
2026-05-07 17:15 51.27748 -63.01686 15782 ft 171 kts 215°
2026-05-07 17:15 51.26823 -63.02882 15785 ft 170 kts 215°
2026-05-07 17:15 51.25903 -63.04072 15781 ft 170 kts 215°
2026-05-07 17:16 51.24984 -63.05262 15781 ft 170 kts 215°
2026-05-07 17:16 51.24064 -63.06452 15785 ft 170 kts 215°
2026-05-07 17:16 51.23148 -63.07641 15790 ft 169 kts 215°
2026-05-07 17:16 51.22230 -63.08820 15791 ft 170 kts 215°
2026-05-07 17:17 51.21310 -63.10005 15793 ft 170 kts 215°
2026-05-07 17:17 51.20386 -63.11198 15791 ft 171 kts 215°
2026-05-07 17:17 51.19463 -63.12388 15790 ft 170 kts 215°
2026-05-07 17:17 51.18544 -63.13575 15792 ft 170 kts 215°
2026-05-07 17:18 51.17622 -63.14761 15791 ft 170 kts 215°
2026-05-07 17:18 51.16706 -63.15940 15792 ft 169 kts 215°
2026-05-07 17:18 51.15789 -63.17120 15790 ft 169 kts 215°
2026-05-07 17:18 51.14870 -63.18300 15789 ft 170 kts 215°
2026-05-07 17:19 51.13954 -63.19479 15789 ft 170 kts 215°
2026-05-07 17:19 51.13037 -63.20658 15787 ft 169 kts 215°
2026-05-07 17:19 51.12124 -63.21828 15785 ft 169 kts 215°
2026-05-07 17:19 51.11223 -63.22983 15790 ft 168 kts 215°
2026-05-07 17:20 51.10314 -63.24149 15788 ft 168 kts 215°
2026-05-07 17:20 51.09404 -63.25315 15788 ft 168 kts 215°
2026-05-07 17:20 51.08480 -63.26498 15788 ft 168 kts 215°
2026-05-07 17:20 51.07582 -63.27650 15793 ft 168 kts 216°
2026-05-07 17:21 51.06675 -63.28814 15790 ft 167 kts 215°
2026-05-07 17:21 51.05767 -63.29970 15790 ft 167 kts 215°
2026-05-07 17:21 51.04861 -63.31129 15789 ft 167 kts 215°
2026-05-07 17:21 51.03958 -63.32282 15790 ft 167 kts 215°
2026-05-07 17:22 51.03051 -63.33440 15789 ft 167 kts 215°
2026-05-07 17:22 51.02143 -63.34598 15790 ft 168 kts 215°
2026-05-07 17:22 51.01231 -63.35761 15791 ft 169 kts 215°
2026-05-07 17:22 51.00317 -63.36928 15790 ft 168 kts 215°
2026-05-07 17:23 50.99408 -63.38086 15791 ft 168 kts 215°
2026-05-07 17:23 50.98495 -63.39248 15790 ft 168 kts 215°
2026-05-07 17:23 50.97584 -63.40409 15791 ft 168 kts 215°
2026-05-07 17:23 50.96674 -63.41566 15788 ft 168 kts 215°
2026-05-07 17:24 50.95761 -63.42728 15789 ft 168 kts 215°
2026-05-07 17:24 50.94849 -63.43887 15787 ft 168 kts 215°
2026-05-07 17:24 50.93940 -63.45044 15785 ft 167 kts 215°
2026-05-07 17:24 50.93032 -63.46196 15783 ft 167 kts 215°
2026-05-07 17:25 50.92127 -63.47344 15790 ft 167 kts 215°
2026-05-07 17:25 50.91219 -63.48492 15804 ft 167 kts 216°
2026-05-07 17:25 50.90311 -63.49647 15804 ft 168 kts 216°
2026-05-07 17:25 50.89399 -63.50802 15807 ft 168 kts 216°
2026-05-07 17:26 50.88483 -63.51957 15806 ft 169 kts 216°
2026-05-07 17:26 50.87566 -63.53122 15809 ft 169 kts 216°
2026-05-07 17:26 50.86646 -63.54285 15808 ft 169 kts 216°
2026-05-07 17:26 50.85722 -63.55455 15812 ft 170 kts 216°
2026-05-07 17:27 50.84800 -63.56622 15813 ft 170 kts 216°
2026-05-07 17:27 50.83874 -63.57792 15806 ft 171 kts 216°
2026-05-07 17:27 50.82946 -63.58963 15808 ft 171 kts 216°
2026-05-07 17:27 50.82017 -63.60134 15810 ft 171 kts 216°
2026-05-07 17:28 50.81099 -63.61293 15809 ft 171 kts 216°
2026-05-07 17:28 50.80172 -63.62468 15811 ft 171 kts 216°
2026-05-07 17:28 50.79235 -63.63640 15808 ft 172 kts 216°
2026-05-07 17:28 50.78299 -63.64818 15811 ft 172 kts 216°
2026-05-07 17:29 50.77362 -63.66004 15808 ft 173 kts 216°
2026-05-07 17:29 50.76420 -63.67185 15806 ft 172 kts 216°
2026-05-07 17:29 50.75479 -63.68368 15808 ft 173 kts 216°
2026-05-07 17:29 50.74530 -63.69559 15808 ft 175 kts 216°
2026-05-07 17:30 50.73569 -63.70765 15806 ft 176 kts 216°
2026-05-07 17:30 50.72612 -63.71969 15803 ft 176 kts 216°
2026-05-07 17:30 50.71658 -63.73168 15808 ft 174 kts 217°
2026-05-07 17:30 50.70717 -63.74349 15803 ft 172 kts 217°
2026-05-07 17:31 50.69781 -63.75522 15801 ft 171 kts 217°
2026-05-07 17:31 50.68854 -63.76681 15804 ft 170 kts 217°
2026-05-07 17:31 50.67927 -63.77843 15799 ft 170 kts 217°
2026-05-07 17:31 50.67000 -63.79002 15796 ft 170 kts 217°
2026-05-07 17:32 50.66080 -63.80155 15793 ft 169 kts 216°
2026-05-07 17:32 50.65165 -63.81306 15800 ft 168 kts 217°
2026-05-07 17:32 50.64246 -63.82452 15799 ft 168 kts 216°
2026-05-07 17:32 50.63638 -63.83205 15800 ft 168 kts 216°
2026-05-07 17:33 50.62408 -63.84737 15800 ft 168 kts 217°
2026-05-07 17:33 50.61490 -63.85885 15800 ft 168 kts 217°
2026-05-07 17:33 50.60573 -63.87027 15800 ft 168 kts 216°
2026-05-07 17:33 50.59658 -63.88165 15800 ft 168 kts 216°
2026-05-07 17:34 50.58740 -63.89310 15799 ft 168 kts 216°
2026-05-07 17:34 50.57825 -63.90452 15798 ft 168 kts 216°
2026-05-07 17:34 50.56920 -63.91579 15800 ft 168 kts 216°
2026-05-07 17:34 50.55986 -63.92739 15801 ft 169 kts 216°
2026-05-07 17:35 50.55078 -63.93868 15804 ft 169 kts 216°
2026-05-07 17:35 50.54155 -63.95014 15803 ft 169 kts 216°
2026-05-07 17:35 50.53235 -63.96160 15801 ft 169 kts 216°
2026-05-07 17:35 50.52314 -63.97302 15801 ft 168 kts 217°
2026-05-07 17:36 50.51396 -63.98439 15802 ft 168 kts 216°
2026-05-07 17:36 50.50476 -63.99580 15801 ft 168 kts 216°
2026-05-07 17:36 50.49555 -64.00722 15800 ft 169 kts 216°
2026-05-07 17:36 50.48634 -64.01863 15802 ft 169 kts 216°
2026-05-07 17:37 50.47713 -64.03004 15804 ft 169 kts 216°
2026-05-07 17:37 50.46791 -64.04144 15804 ft 169 kts 216°
2026-05-07 17:37 50.46647 -64.04322 15804 ft 169 kts 216°
2026-05-07 17:37 50.46193 -64.04884 15804 ft 169 kts 216°
2026-05-07 17:38 50.45801 -64.05369 15805 ft 169 kts 216°
2026-05-07 17:38 50.44877 -64.06511 15804 ft 169 kts 216°
2026-05-07 17:38 50.43954 -64.07651 15804 ft 169 kts 216°
2026-05-07 17:39 50.43031 -64.08789 15804 ft 169 kts 216°
2026-05-07 17:39 50.42110 -64.09927 15801 ft 169 kts 216°
2026-05-07 17:39 50.41189 -64.11064 15803 ft 169 kts 216°
2026-05-07 17:39 50.40263 -64.12206 15809 ft 169 kts 216°
2026-05-07 17:40 50.39336 -64.13348 15808 ft 169 kts 216°
2026-05-07 17:40 50.38409 -64.14489 15808 ft 169 kts 216°
2026-05-07 17:40 50.37485 -64.15626 15808 ft 169 kts 216°
2026-05-07 17:40 50.36560 -64.16766 15810 ft 170 kts 216°
2026-05-07 17:41 50.35630 -64.17908 15808 ft 170 kts 216°
2026-05-07 17:41 50.34700 -64.19052 15807 ft 170 kts 216°
2026-05-07 17:41 50.33785 -64.20174 15805 ft 169 kts 216°
2026-05-07 17:41 50.32846 -64.21323 15811 ft 169 kts 216°
2026-05-07 17:42 50.31932 -64.22446 15814 ft 169 kts 216°
2026-05-07 17:42 50.30992 -64.23599 15813 ft 170 kts 216°
2026-05-07 17:42 50.30074 -64.24726 15814 ft 170 kts 216°
2026-05-07 17:42 50.29140 -64.25869 15816 ft 170 kts 216°
2026-05-07 17:43 50.28208 -64.27013 15816 ft 171 kts 216°
2026-05-07 17:43 50.27271 -64.28161 15816 ft 171 kts 216°
2026-05-07 17:43 50.26335 -64.29306 15815 ft 171 kts 216°
2026-05-07 17:43 50.25403 -64.30445 15825 ft 170 kts 216°
2026-05-07 17:44 50.24470 -64.31585 15825 ft 170 kts 216°
2026-05-07 17:44 50.23541 -64.32722 15824 ft 170 kts 216°
2026-05-07 17:44 50.22608 -64.33859 15823 ft 170 kts 216°
2026-05-07 17:44 50.21679 -64.34994 15824 ft 170 kts 216°
2026-05-07 17:45 50.20750 -64.36126 15824 ft 170 kts 216°
2026-05-07 17:45 50.19818 -64.37263 15823 ft 170 kts 216°
2026-05-07 17:45 50.18887 -64.38398 15823 ft 170 kts 216°
2026-05-07 17:45 50.17956 -64.39531 15825 ft 170 kts 216°
2026-05-07 17:46 50.17340 -64.40282 15835 ft 170 kts 216°
2026-05-07 17:46 50.16410 -64.41413 15835 ft 170 kts 216°
2026-05-07 17:46 50.15477 -64.42549 15834 ft 170 kts 216°
2026-05-07 17:46 50.14545 -64.43681 15834 ft 170 kts 216°
2026-05-07 17:47 50.13615 -64.44812 15831 ft 170 kts 216°
2026-05-07 17:47 50.12685 -64.45940 15835 ft 170 kts 216°
2026-05-07 17:47 50.11753 -64.47071 15834 ft 170 kts 216°
2026-05-07 17:47 50.10820 -64.48204 15834 ft 170 kts 216°
2026-05-07 17:48 50.09886 -64.49335 15843 ft 170 kts 216°
2026-05-07 17:48 50.08957 -64.50463 15843 ft 170 kts 216°
2026-05-07 17:48 50.08026 -64.51590 15843 ft 169 kts 216°
2026-05-07 17:48 50.07092 -64.52728 15861 ft 172 kts 216°
2026-05-07 17:49 50.06139 -64.53870 15860 ft 174 kts 216°
2026-05-07 17:49 50.05182 -64.55027 15860 ft 175 kts 216°
2026-05-07 17:49 50.04223 -64.56188 15860 ft 175 kts 216°
2026-05-07 17:49 50.03260 -64.57354 15862 ft 175 kts 216°
2026-05-07 17:50 50.02298 -64.58517 15862 ft 176 kts 216°
2026-05-07 17:50 50.01332 -64.59682 15865 ft 176 kts 216°
2026-05-07 17:50 50.00367 -64.60846 15865 ft 176 kts 216°
2026-05-07 17:50 49.99402 -64.62008 15867 ft 176 kts 216°
2026-05-07 17:51 49.98436 -64.63173 15866 ft 176 kts 216°
2026-05-07 17:51 49.97479 -64.64326 15866 ft 176 kts 216°
2026-05-07 17:51 49.96501 -64.65504 15867 ft 176 kts 216°
2026-05-07 17:51 49.95533 -64.66669 15867 ft 176 kts 216°
2026-05-07 17:52 49.94560 -64.67839 15866 ft 176 kts 216°
2026-05-07 17:52 49.93591 -64.69003 15873 ft 176 kts 216°
2026-05-07 17:52 49.92620 -64.70171 15873 ft 176 kts 216°
2026-05-07 17:52 49.91648 -64.71336 15872 ft 176 kts 216°
2026-05-07 17:53 49.90681 -64.72498 15872 ft 176 kts 216°
2026-05-07 17:53 49.89725 -64.73644 15872 ft 176 kts 216°
2026-05-07 17:53 49.88755 -64.74806 15871 ft 176 kts 216°
2026-05-07 17:53 49.87788 -64.75966 15869 ft 176 kts 216°
2026-05-07 17:54 49.86821 -64.77124 15869 ft 176 kts 216°
2026-05-07 17:54 49.85853 -64.78284 15876 ft 176 kts 216°
2026-05-07 17:54 49.84880 -64.79448 15877 ft 177 kts 216°
2026-05-07 17:54 49.83901 -64.80617 15880 ft 178 kts 216°
2026-05-07 17:55 49.82922 -64.81788 15879 ft 178 kts 216°
2026-05-07 17:55 49.81946 -64.82954 15879 ft 177 kts 216°
2026-05-07 17:55 49.80971 -64.84116 15878 ft 177 kts 216°
2026-05-07 17:55 49.79997 -64.85279 15877 ft 176 kts 216°
2026-05-07 17:56 49.79027 -64.86436 15877 ft 176 kts 216°
2026-05-07 17:56 49.78054 -64.87596 15876 ft 176 kts 216°
2026-05-07 17:56 49.77083 -64.88752 15876 ft 176 kts 216°
2026-05-07 17:56 49.76114 -64.89907 15876 ft 176 kts 216°
2026-05-07 17:57 49.75142 -64.91062 15875 ft 176 kts 216°
2026-05-07 17:57 49.74497 -64.91830 15878 ft 176 kts 216°
2026-05-07 17:57 49.73195 -64.93379 15878 ft 177 kts 216°
2026-05-07 17:57 49.72220 -64.94536 15877 ft 177 kts 216°
2026-05-07 17:58 49.71245 -64.95696 15877 ft 177 kts 216°
2026-05-07 17:58 49.70267 -64.96855 15882 ft 177 kts 216°
2026-05-07 17:58 49.69289 -64.98017 15882 ft 177 kts 216°
2026-05-07 17:58 49.68314 -64.99172 15880 ft 177 kts 216°
2026-05-07 17:59 49.67336 -65.00331 15880 ft 177 kts 216°
2026-05-07 17:59 49.66359 -65.01489 15880 ft 177 kts 216°
2026-05-07 17:59 49.65380 -65.02647 15880 ft 177 kts 216°
2026-05-07 17:59 49.64403 -65.03803 15882 ft 177 kts 216°
2026-05-07 18:00 49.63426 -65.04958 15885 ft 177 kts 216°
2026-05-07 18:00 49.62460 -65.06099 15885 ft 177 kts 216°
2026-05-07 18:00 49.61471 -65.07268 15884 ft 177 kts 216°
2026-05-07 18:00 49.60492 -65.08424 15881 ft 177 kts 216°
2026-05-07 18:01 49.59526 -65.09563 15881 ft 177 kts 216°
2026-05-07 18:01 49.58549 -65.10717 15881 ft 177 kts 216°
2026-05-07 18:01 49.57570 -65.11870 15880 ft 177 kts 216°
2026-05-07 18:01 49.56592 -65.13023 15881 ft 177 kts 216°
2026-05-07 18:02 49.54636 -65.15326 15886 ft 177 kts 216°
2026-05-07 18:02 49.53660 -65.16474 15886 ft 177 kts 217°
2026-05-07 18:02 49.52681 -65.17624 15886 ft 177 kts 216°
2026-05-07 18:03 49.51705 -65.18772 15885 ft 177 kts 216°
2026-05-07 18:03 49.50727 -65.19920 15885 ft 177 kts 216°
2026-05-07 18:03 49.49749 -65.21068 15885 ft 177 kts 216°
2026-05-07 18:03 49.48769 -65.22219 15888 ft 177 kts 217°
2026-05-07 18:04 49.47786 -65.23371 15891 ft 177 kts 216°
2026-05-07 18:04 49.46808 -65.24518 15891 ft 177 kts 216°
2026-05-07 18:04 49.45824 -65.25672 15891 ft 178 kts 216°
2026-05-07 18:04 49.44842 -65.26823 15894 ft 178 kts 216°
2026-05-07 18:05 49.43854 -65.27977 15893 ft 178 kts 216°
2026-05-07 18:05 49.42868 -65.29131 15892 ft 178 kts 216°
2026-05-07 18:05 49.41882 -65.30282 15892 ft 178 kts 216°
2026-05-07 18:05 49.40898 -65.31433 15892 ft 178 kts 216°
2026-05-07 18:06 49.39910 -65.32586 15890 ft 178 kts 217°
2026-05-07 18:06 49.38925 -65.33737 15889 ft 178 kts 216°
2026-05-07 18:06 49.37941 -65.34885 15889 ft 178 kts 216°
2026-05-07 18:06 49.36958 -65.36031 15888 ft 177 kts 216°
2026-05-07 18:07 49.35979 -65.37174 15880 ft 177 kts 217°
2026-05-07 18:07 49.35003 -65.38310 15880 ft 176 kts 217°
2026-05-07 18:07 49.34025 -65.39448 15880 ft 176 kts 217°
2026-05-07 18:07 49.33064 -65.40567 15879 ft 176 kts 217°
2026-05-07 18:08 49.32081 -65.41710 15886 ft 175 kts 217°
2026-05-07 18:08 49.31107 -65.42842 15885 ft 175 kts 217°
2026-05-07 18:08 49.30149 -65.43956 15885 ft 175 kts 217°
2026-05-07 18:08 49.29178 -65.45084 15890 ft 175 kts 217°
2026-05-07 18:09 49.28208 -65.46210 15890 ft 175 kts 217°
2026-05-07 18:09 49.27239 -65.47334 15890 ft 175 kts 217°
2026-05-07 18:09 49.26269 -65.48459 15890 ft 175 kts 217°
2026-05-07 18:09 49.25298 -65.49585 15886 ft 175 kts 217°
2026-05-07 18:10 49.24328 -65.50707 15891 ft 174 kts 217°
2026-05-07 18:10 49.23368 -65.51821 15901 ft 172 kts 217°
2026-05-07 18:10 49.22405 -65.52932 15901 ft 175 kts 217°
2026-05-07 18:10 49.21433 -65.54058 15901 ft 175 kts 217°
2026-05-07 18:11 49.20463 -65.55183 15900 ft 175 kts 217°
2026-05-07 18:11 49.19820 -65.55923 15899 ft 175 kts 217°
2026-05-07 18:11 49.18519 -65.57427 15903 ft 175 kts 217°
2026-05-07 18:11 49.17544 -65.58550 15905 ft 176 kts 217°
2026-05-07 18:12 49.16568 -65.59671 15904 ft 175 kts 218°
2026-05-07 18:12 49.15603 -65.60791 15904 ft 174 kts 217°
2026-05-07 18:12 49.14636 -65.61906 15903 ft 174 kts 217°
2026-05-07 18:12 49.13670 -65.63019 15906 ft 174 kts 217°
2026-05-07 18:13 49.12703 -65.64129 15910 ft 175 kts 217°
2026-05-07 18:13 49.11726 -65.65253 15899 ft 174 kts 217°
2026-05-07 18:13 49.10762 -65.66359 15901 ft 173 kts 217°
2026-05-07 18:13 49.09800 -65.67471 15907 ft 173 kts 217°
2026-05-07 18:14 49.08848 -65.68565 15907 ft 174 kts 217°
2026-05-07 18:14 49.07872 -65.69686 15907 ft 174 kts 217°
2026-05-07 18:14 49.06917 -65.70784 15908 ft 174 kts 217°
2026-05-07 18:14 49.05936 -65.71910 15908 ft 174 kts 217°
2026-05-07 18:15 49.04967 -65.73019 15910 ft 174 kts 217°
2026-05-07 18:15 49.04009 -65.74116 15909 ft 174 kts 217°
2026-05-07 18:15 49.03039 -65.75230 15910 ft 175 kts 217°
2026-05-07 18:15 49.02066 -65.76343 15914 ft 175 kts 217°
2026-05-07 18:16 49.01096 -65.77453 15914 ft 174 kts 217°
2026-05-07 18:16 49.00128 -65.78560 15913 ft 174 kts 217°
2026-05-07 18:16 48.99159 -65.79670 15913 ft 174 kts 217°
2026-05-07 18:16 48.98189 -65.80777 15907 ft 174 kts 218°
2026-05-07 18:17 48.97225 -65.81879 15908 ft 173 kts 218°
2026-05-07 18:17 48.96265 -65.82975 15908 ft 173 kts 218°
2026-05-07 18:17 48.95304 -65.84072 15906 ft 172 kts 218°
2026-05-07 18:17 48.94347 -65.85164 15908 ft 172 kts 218°
2026-05-07 18:18 48.93390 -65.86255 15908 ft 172 kts 218°
2026-05-07 18:18 48.92436 -65.87341 15906 ft 171 kts 218°
2026-05-07 18:18 48.91483 -65.88427 15909 ft 171 kts 218°
2026-05-07 18:18 48.90531 -65.89508 15911 ft 171 kts 218°
2026-05-07 18:19 48.89581 -65.90590 15910 ft 170 kts 218°
2026-05-07 18:19 48.88636 -65.91665 15912 ft 170 kts 218°
2026-05-07 18:19 48.87684 -65.92746 15911 ft 171 kts 218°
2026-05-07 18:19 48.86736 -65.93826 15916 ft 170 kts 218°
2026-05-07 18:20 48.85788 -65.94904 15918 ft 170 kts 218°
2026-05-07 18:20 48.84840 -65.95979 15918 ft 171 kts 218°
2026-05-07 18:20 48.83886 -65.97061 15921 ft 171 kts 218°
2026-05-07 18:20 48.82933 -65.98138 15917 ft 171 kts 218°
2026-05-07 18:21 48.81981 -65.99219 15914 ft 171 kts 218°
2026-05-07 18:21 48.81029 -66.00304 15917 ft 172 kts 218°
2026-05-07 18:21 48.80069 -66.01383 15916 ft 171 kts 218°
2026-05-07 18:21 48.79115 -66.02464 15917 ft 171 kts 219°
2026-05-07 18:22 48.78163 -66.03551 15911 ft 171 kts 219°
2026-05-07 18:22 48.77525 -66.04244 15914 ft 170 kts 218°
2026-05-07 18:22 48.76282 -66.05661 15909 ft 168 kts 220°
2026-05-07 18:22 48.75350 -66.06732 15916 ft 168 kts 219°
2026-05-07 18:23 48.74415 -66.07777 15915 ft 167 kts 219°
2026-05-07 18:23 48.73480 -66.08836 15916 ft 168 kts 219°
2026-05-07 18:23 48.72543 -66.09896 15915 ft 168 kts 219°
2026-05-07 18:23 48.71602 -66.10955 15913 ft 168 kts 219°
2026-05-07 18:24 48.70661 -66.12013 15914 ft 168 kts 219°
2026-05-07 18:24 48.69722 -66.13070 15913 ft 168 kts 219°
2026-05-07 18:24 48.68781 -66.14130 15912 ft 168 kts 219°
2026-05-07 18:24 48.67843 -66.15184 15910 ft 168 kts 219°
2026-05-07 18:25 48.66904 -66.16239 15912 ft 168 kts 219°
2026-05-07 18:25 48.65966 -66.17296 15911 ft 168 kts 219°
2026-05-07 18:25 48.65026 -66.18348 15914 ft 167 kts 219°
2026-05-07 18:25 48.64095 -66.19393 15916 ft 166 kts 220°
2026-05-07 18:26 48.63169 -66.20435 15917 ft 166 kts 219°
2026-05-07 18:26 48.62243 -66.21481 15917 ft 166 kts 219°
2026-05-07 18:26 48.61311 -66.22521 15920 ft 167 kts 219°
2026-05-07 18:26 48.60378 -66.23578 15913 ft 168 kts 219°
2026-05-07 18:27 48.59439 -66.24626 15918 ft 168 kts 219°
2026-05-07 18:27 48.58498 -66.25670 15914 ft 168 kts 219°
2026-05-07 18:27 48.57560 -66.26719 15911 ft 168 kts 219°
2026-05-07 18:27 48.56938 -66.27415 15912 ft 167 kts 219°
2026-05-07 18:28 48.55687 -66.28815 15917 ft 168 kts 219°
2026-05-07 18:28 48.54758 -66.29856 15918 ft 168 kts 219°
2026-05-07 18:28 48.53817 -66.30906 15922 ft 169 kts 219°
2026-05-07 18:28 48.52877 -66.31963 15916 ft 168 kts 219°
2026-05-07 18:29 48.51925 -66.33022 15916 ft 168 kts 219°
2026-05-07 18:29 48.50946 -66.33937 15920 ft 169 kts 213°
2026-05-07 18:29 48.49926 -66.34815 15914 ft 168 kts 214°
2026-05-07 18:29 48.48910 -66.35687 15917 ft 168 kts 214°
2026-05-07 18:30 48.47784 -66.35808 15920 ft 209 kts 145°
2026-05-07 18:30 48.46950 -66.34392 16686 ft 165 kts 162°
2026-05-07 18:30 48.46079 -66.34662 16819 ft 134 kts 231°
2026-05-07 18:30 48.45634 -66.35854 17111 ft 134 kts 240°
2026-05-07 18:31 48.45229 -66.37192 17236 ft 136 kts 237°
2026-05-07 18:31 48.44705 -66.38417 17268 ft 145 kts 230°
2026-05-07 18:31 48.43997 -66.39569 17195 ft 155 kts 224°
2026-05-07 18:31 48.43120 -66.40587 17099 ft 163 kts 216°
2026-05-07 18:32 48.42149 -66.41515 16989 ft 168 kts 215°
2026-05-07 18:32 48.41140 -66.42435 16878 ft 172 kts 214°
2026-05-07 18:32 48.40098 -66.43351 16752 ft 174 kts 214°
2026-05-07 18:32 48.39043 -66.44252 16623 ft 174 kts 214°
2026-05-07 18:33 48.37994 -66.45175 16494 ft 175 kts 214°
2026-05-07 18:33 48.36938 -66.46097 16363 ft 176 kts 214°
2026-05-07 18:33 48.35877 -66.47020 16233 ft 177 kts 214°
2026-05-07 18:33 48.34807 -66.47942 16099 ft 177 kts 214°
2026-05-07 18:34 48.33738 -66.48868 15969 ft 177 kts 214°
2026-05-07 18:34 48.32680 -66.49783 15958 ft 174 kts 214°
2026-05-07 18:34 48.31637 -66.50686 15955 ft 173 kts 214°
2026-05-07 18:34 48.30601 -66.51572 15956 ft 170 kts 214°
2026-05-07 18:35 48.29576 -66.52448 15946 ft 169 kts 215°
2026-05-07 18:35 48.28906 -66.53033 15948 ft 169 kts 215°
2026-05-07 18:35 48.27548 -66.54202 15933 ft 165 kts 213°
2026-05-07 18:35 48.26898 -66.54747 15964 ft 161 kts 215°
2026-05-07 18:36 48.25922 -66.55611 15953 ft 163 kts 214°
2026-05-07 18:36 48.24935 -66.56471 15951 ft 164 kts 215°
2026-05-07 18:36 48.23942 -66.57335 15951 ft 165 kts 214°
2026-05-07 18:36 48.22941 -66.58181 15956 ft 165 kts 214°
2026-05-07 18:37 48.21935 -66.59025 15958 ft 166 kts 214°
2026-05-07 18:37 48.20941 -66.59882 15949 ft 164 kts 214°
2026-05-07 18:37 48.19947 -66.60737 15948 ft 165 kts 214°
2026-05-07 18:37 48.18956 -66.61594 15945 ft 164 kts 214°
2026-05-07 18:38 48.17965 -66.62447 15947 ft 164 kts 214°
2026-05-07 18:38 48.16976 -66.63295 15946 ft 164 kts 214°
2026-05-07 18:38 48.15980 -66.64148 15942 ft 164 kts 214°
2026-05-07 18:38 48.14993 -66.64998 15951 ft 164 kts 214°
2026-05-07 18:39 48.14000 -66.65845 15951 ft 164 kts 214°
2026-05-07 18:39 48.13007 -66.66693 15950 ft 164 kts 214°
2026-05-07 18:39 48.12017 -66.67538 15951 ft 164 kts 214°
2026-05-07 18:39 48.11026 -66.68389 15948 ft 164 kts 214°
2026-05-07 18:40 48.10052 -66.69225 15954 ft 164 kts 215°
2026-05-07 18:40 48.09062 -66.70080 15953 ft 164 kts 213°
2026-05-07 18:40 48.08067 -66.70909 15955 ft 164 kts 214°
2026-05-07 18:40 48.07081 -66.71756 15955 ft 164 kts 214°
2026-05-07 18:41 48.06093 -66.72595 15953 ft 162 kts 214°
2026-05-07 18:41 48.05113 -66.73430 15958 ft 162 kts 214°
2026-05-07 18:41 48.04134 -66.74264 15954 ft 161 kts 214°
2026-05-07 18:41 48.03157 -66.75103 15961 ft 163 kts 214°
2026-05-07 18:42 48.02176 -66.75943 15955 ft 163 kts 214°
2026-05-07 18:42 48.01194 -66.76781 15957 ft 163 kts 214°
2026-05-07 18:42 48.00206 -66.77622 15956 ft 163 kts 214°
2026-05-07 18:42 47.99223 -66.78458 15955 ft 163 kts 214°
2026-05-07 18:43 47.98237 -66.79297 15955 ft 162 kts 214°
2026-05-07 18:43 47.97260 -66.80124 15954 ft 162 kts 214°
2026-05-07 18:43 47.96280 -66.80955 15954 ft 161 kts 214°
2026-05-07 18:43 47.95304 -66.81785 15948 ft 161 kts 215°
2026-05-07 18:44 47.94334 -66.82611 15954 ft 160 kts 214°
2026-05-07 18:44 47.93366 -66.83430 15956 ft 161 kts 214°
2026-05-07 18:44 47.92390 -66.84260 15956 ft 162 kts 214°
2026-05-07 18:44 47.91408 -66.85094 15958 ft 162 kts 214°
2026-05-07 18:45 47.90441 -66.85911 15957 ft 162 kts 214°
2026-05-07 18:45 47.89465 -66.86737 15957 ft 161 kts 214°
2026-05-07 18:45 47.88483 -66.87572 15956 ft 161 kts 214°
2026-05-07 18:45 47.87507 -66.88398 15957 ft 162 kts 214°
2026-05-07 18:46 47.86538 -66.89216 15961 ft 162 kts 214°
2026-05-07 18:46 47.85557 -66.90043 15959 ft 162 kts 214°
2026-05-07 18:46 47.84578 -66.90872 15958 ft 162 kts 214°
2026-05-07 18:46 47.83606 -66.91692 15963 ft 160 kts 214°
2026-05-07 18:47 47.82637 -66.92509 15966 ft 160 kts 214°
2026-05-07 18:47 47.81668 -66.93329 15961 ft 160 kts 214°
2026-05-07 18:47 47.80700 -66.94145 15965 ft 160 kts 214°
2026-05-07 18:47 47.79728 -66.94966 15958 ft 162 kts 214°
2026-05-07 18:48 47.78755 -66.95790 15955 ft 160 kts 214°
2026-05-07 18:48 47.77780 -66.96593 15962 ft 160 kts 214°
2026-05-07 18:48 47.76816 -66.97416 15964 ft 160 kts 214°
2026-05-07 18:48 47.75844 -66.98238 15961 ft 160 kts 214°
2026-05-07 18:49 47.74876 -66.99056 15963 ft 160 kts 214°
2026-05-07 18:49 47.73904 -66.99872 15963 ft 161 kts 214°
2026-05-07 18:49 47.72929 -67.00691 15965 ft 161 kts 214°
2026-05-07 18:49 47.71954 -67.01511 15965 ft 161 kts 214°
2026-05-07 18:50 47.70982 -67.02325 15969 ft 161 kts 214°
2026-05-07 18:50 47.70006 -67.03146 15969 ft 161 kts 214°
2026-05-07 18:50 47.69031 -67.03966 15971 ft 162 kts 214°
2026-05-07 18:50 47.68049 -67.04791 15968 ft 162 kts 214°
2026-05-07 18:51 47.67073 -67.05608 15967 ft 161 kts 214°
2026-05-07 18:51 47.66096 -67.06431 15967 ft 161 kts 214°
2026-05-07 18:51 47.65113 -67.07250 15964 ft 162 kts 214°
2026-05-07 18:51 47.64133 -67.08069 15962 ft 162 kts 213°
2026-05-07 18:52 47.63158 -67.08881 15958 ft 160 kts 214°
2026-05-07 18:52 47.62186 -67.09698 15957 ft 160 kts 214°
2026-05-07 18:52 47.61213 -67.10513 15957 ft 161 kts 214°
2026-05-07 18:52 47.60240 -67.11327 15960 ft 161 kts 214°
2026-05-07 18:53 47.59262 -67.12144 15960 ft 162 kts 214°
2026-05-07 18:53 47.58286 -67.12964 15961 ft 161 kts 214°
2026-05-07 18:53 47.57307 -67.13779 15957 ft 161 kts 214°
2026-05-07 18:53 47.56332 -67.14593 15959 ft 161 kts 214°
2026-05-07 18:54 47.55355 -67.15406 15963 ft 161 kts 214°
2026-05-07 18:54 47.54379 -67.16219 15961 ft 161 kts 214°
2026-05-07 18:54 47.53406 -67.17030 15962 ft 161 kts 214°
2026-05-07 18:54 47.52431 -67.17844 15962 ft 161 kts 214°
2026-05-07 18:55 47.51456 -67.18655 15962 ft 161 kts 214°
2026-05-07 18:55 47.50481 -67.19466 15961 ft 160 kts 214°
2026-05-07 18:55 47.49512 -67.20275 15963 ft 160 kts 214°
2026-05-07 18:55 47.48537 -67.21086 15964 ft 161 kts 214°
2026-05-07 18:56 47.47561 -67.21897 15964 ft 161 kts 214°
2026-05-07 18:56 47.46596 -67.22699 15966 ft 161 kts 214°
2026-05-07 18:56 47.45617 -67.23513 15964 ft 161 kts 214°
2026-05-07 18:56 47.44642 -67.24321 15961 ft 161 kts 214°
2026-05-07 18:57 47.43665 -67.25132 15961 ft 160 kts 214°
2026-05-07 18:57 47.42691 -67.25942 15961 ft 161 kts 214°
2026-05-07 18:57 47.41712 -67.26751 15962 ft 161 kts 214°
2026-05-07 18:57 47.40736 -67.27562 15962 ft 161 kts 214°
2026-05-07 18:58 47.39758 -67.28371 15965 ft 161 kts 214°
2026-05-07 18:58 47.38781 -67.29180 15965 ft 161 kts 214°
2026-05-07 18:58 47.37803 -67.29989 15964 ft 161 kts 214°
2026-05-07 18:58 47.36820 -67.30780 15965 ft 161 kts 213°
2026-05-07 18:59 47.35821 -67.31545 15966 ft 162 kts 213°
2026-05-07 18:59 47.34825 -67.32312 15965 ft 162 kts 213°
2026-05-07 18:59 47.33830 -67.33079 15965 ft 161 kts 213°
2026-05-07 18:59 47.32833 -67.33847 15964 ft 161 kts 213°
2026-05-07 19:00 47.31840 -67.34611 15964 ft 161 kts 213°
2026-05-07 19:00 47.30843 -67.35379 15964 ft 162 kts 213°
2026-05-07 19:00 47.29848 -67.36145 15963 ft 162 kts 213°
2026-05-07 19:00 47.28851 -67.36911 15963 ft 162 kts 213°
2026-05-07 19:01 47.27854 -67.37678 15962 ft 161 kts 213°
2026-05-07 19:01 47.26861 -67.38440 15962 ft 161 kts 213°
2026-05-07 19:01 47.25866 -67.39205 15961 ft 161 kts 213°
2026-05-07 19:01 47.24872 -67.39968 15969 ft 161 kts 213°
2026-05-07 19:02 47.23877 -67.40724 15967 ft 161 kts 213°
2026-05-07 19:02 47.22881 -67.41495 15969 ft 162 kts 213°
2026-05-07 19:02 47.21884 -67.42262 15968 ft 162 kts 213°
2026-05-07 19:02 47.20888 -67.43024 15972 ft 162 kts 213°
2026-05-07 19:03 47.19903 -67.43779 15972 ft 162 kts 213°
2026-05-07 19:03 47.18902 -67.44545 15972 ft 162 kts 213°
2026-05-07 19:03 47.17888 -67.45320 15970 ft 162 kts 213°
2026-05-07 19:03 47.16903 -67.46073 15975 ft 162 kts 213°
2026-05-07 19:04 47.15900 -67.46840 15975 ft 163 kts 213°
2026-05-07 19:04 47.14896 -67.47609 15974 ft 163 kts 213°
2026-05-07 19:04 47.13893 -67.48378 15971 ft 162 kts 213°
2026-05-07 19:04 47.12892 -67.49139 15971 ft 162 kts 213°
2026-05-07 19:05 47.11894 -67.49900 15973 ft 162 kts 213°
2026-05-07 19:05 47.10889 -67.50667 15971 ft 163 kts 213°
2026-05-07 19:05 47.09886 -67.51433 15971 ft 162 kts 213°
2026-05-07 19:05 47.08883 -67.52198 15976 ft 163 kts 213°
2026-05-07 19:06 47.07877 -67.52965 15973 ft 163 kts 213°
2026-05-07 19:06 47.05873 -67.54491 15956 ft 162 kts 213°
2026-05-07 19:06 47.04876 -67.55250 15970 ft 162 kts 213°
2026-05-07 19:07 47.03872 -67.56012 15973 ft 162 kts 213°
2026-05-07 19:07 47.02872 -67.56774 15971 ft 162 kts 213°
2026-05-07 19:07 47.01869 -67.57535 15974 ft 163 kts 213°
2026-05-07 19:07 47.00865 -67.58298 15974 ft 163 kts 213°
2026-05-07 19:08 46.99861 -67.59065 15976 ft 163 kts 213°
2026-05-07 19:08 46.98854 -67.59829 15971 ft 163 kts 213°
2026-05-07 19:08 46.97851 -67.60586 15971 ft 161 kts 213°
2026-05-07 19:08 46.96852 -67.61344 15971 ft 162 kts 213°
2026-05-07 19:09 46.95856 -67.62100 15973 ft 162 kts 213°
2026-05-07 19:09 46.94852 -67.62862 15970 ft 162 kts 213°
2026-05-07 19:09 46.93849 -67.63621 15971 ft 163 kts 213°
2026-05-07 19:09 46.92845 -67.64382 15970 ft 162 kts 213°
2026-05-07 19:10 46.91839 -67.65143 15970 ft 163 kts 213°
2026-05-07 19:10 46.90833 -67.65905 15970 ft 163 kts 213°
2026-05-07 19:10 46.89830 -67.66663 15970 ft 163 kts 213°
2026-05-07 19:10 46.88821 -67.67426 15968 ft 163 kts 213°
2026-05-07 19:11 46.87810 -67.68190 15970 ft 164 kts 213°
2026-05-07 19:11 46.86799 -67.68954 15972 ft 164 kts 213°
2026-05-07 19:11 46.85788 -67.69718 15966 ft 163 kts 213°
2026-05-07 19:11 46.84784 -67.70475 15966 ft 162 kts 213°
2026-05-07 19:12 46.83781 -67.71231 15965 ft 162 kts 213°
2026-05-07 19:12 46.82783 -67.71983 15963 ft 162 kts 213°
2026-05-07 19:12 46.81784 -67.72753 15961 ft 163 kts 213°
2026-05-07 19:12 46.80778 -67.73484 15966 ft 162 kts 213°
2026-05-07 19:13 46.79779 -67.74236 15965 ft 161 kts 213°
2026-05-07 19:13 46.78786 -67.74992 15965 ft 161 kts 213°
2026-05-07 19:13 46.77802 -67.75734 15964 ft 161 kts 213°
2026-05-07 19:13 46.76795 -67.76493 15961 ft 161 kts 213°
2026-05-07 19:14 46.75796 -67.77244 15977 ft 162 kts 213°
2026-05-07 19:14 46.74793 -67.77997 15978 ft 162 kts 213°
2026-05-07 19:14 46.73791 -67.78750 15978 ft 163 kts 213°
2026-05-07 19:14 46.72755 -67.79395 15979 ft 164 kts 208°
2026-05-07 19:15 46.71698 -67.80017 15980 ft 163 kts 210°
2026-05-07 19:15 46.70632 -67.80656 15980 ft 164 kts 209°
2026-05-07 19:15 46.69590 -67.81274 15981 ft 164 kts 209°
2026-05-07 19:15 46.68520 -67.81911 15982 ft 164 kts 209°
2026-05-07 19:16 46.67476 -67.82529 15983 ft 164 kts 209°
2026-05-07 19:16 46.66418 -67.83156 15981 ft 164 kts 209°
2026-05-07 19:16 46.65360 -67.83783 15981 ft 164 kts 209°
2026-05-07 19:16 46.64305 -67.84408 15980 ft 164 kts 209°
2026-05-07 19:17 46.63250 -67.85032 15982 ft 164 kts 209°
2026-05-07 19:17 46.62191 -67.85659 15981 ft 164 kts 209°
2026-05-07 19:17 46.61136 -67.86282 15980 ft 164 kts 209°
2026-05-07 19:17 46.60079 -67.86906 15981 ft 164 kts 209°
2026-05-07 19:18 46.59024 -67.87531 15981 ft 164 kts 209°
2026-05-07 19:18 46.57964 -67.88157 15980 ft 164 kts 209°
2026-05-07 19:18 46.56902 -67.88784 15982 ft 165 kts 209°
2026-05-07 19:18 46.55841 -67.89410 15990 ft 165 kts 209°
2026-05-07 19:19 46.54777 -67.90038 15990 ft 165 kts 209°
2026-05-07 19:19 46.53714 -67.90664 15989 ft 165 kts 209°
2026-05-07 19:19 46.52650 -67.91290 15990 ft 164 kts 209°
2026-05-07 19:19 46.51595 -67.91911 15991 ft 163 kts 209°
2026-05-07 19:20 46.50546 -67.92532 15996 ft 163 kts 209°
2026-05-07 19:20 46.49487 -67.93154 15996 ft 164 kts 209°
2026-05-07 19:20 46.48429 -67.93776 15995 ft 164 kts 209°
2026-05-07 19:20 46.47373 -67.94396 16004 ft 164 kts 210°
2026-05-07 19:21 46.46317 -67.95018 16006 ft 164 kts 209°
2026-05-07 19:21 46.45256 -67.95643 16007 ft 165 kts 209°
2026-05-07 19:21 46.44899 -67.95852 16008 ft 165 kts 209°
2026-05-07 19:21 46.44553 -67.96054 16009 ft 165 kts 209°
2026-05-07 19:22 46.39992 -67.98731 16016 ft 166 kts 209°
2026-05-07 19:22 46.38935 -67.99350 16011 ft 166 kts 209°
2026-05-07 19:23 46.37869 -67.99975 16010 ft 166 kts 209°
2026-05-07 19:23 46.36801 -68.00599 16007 ft 165 kts 209°
2026-05-07 19:23 46.35733 -68.01226 16006 ft 165 kts 209°
2026-05-07 19:23 46.34667 -68.01849 16005 ft 165 kts 209°
2026-05-07 19:24 46.33598 -68.02475 16001 ft 166 kts 209°
2026-05-07 19:24 46.32530 -68.03098 16000 ft 166 kts 209°
2026-05-07 19:24 46.31463 -68.03723 15998 ft 165 kts 209°
2026-05-07 19:24 46.30395 -68.04347 15997 ft 166 kts 209°
2026-05-07 19:25 46.29327 -68.04972 15994 ft 165 kts 209°
2026-05-07 19:25 46.28262 -68.05591 15985 ft 164 kts 209°
2026-05-07 19:25 46.27202 -68.06209 15983 ft 164 kts 210°
2026-05-07 19:25 46.26141 -68.06829 15982 ft 165 kts 210°
2026-05-07 19:26 46.25074 -68.07452 15982 ft 165 kts 209°
2026-05-07 19:26 46.24013 -68.08069 15982 ft 165 kts 210°
2026-05-07 19:26 46.22948 -68.08690 15981 ft 165 kts 209°
2026-05-07 19:26 46.21884 -68.09310 15983 ft 165 kts 210°
2026-05-07 19:27 46.20818 -68.09930 15982 ft 165 kts 210°
2026-05-07 19:27 46.19753 -68.10551 15982 ft 165 kts 209°
2026-05-07 19:27 46.18688 -68.11171 15983 ft 165 kts 210°
2026-05-07 19:27 46.17636 -68.11782 15983 ft 165 kts 209°
2026-05-07 19:28 46.16567 -68.12403 15982 ft 166 kts 210°
2026-05-07 19:28 46.15482 -68.13034 15982 ft 166 kts 209°
2026-05-07 19:28 46.14410 -68.13656 15983 ft 166 kts 209°
2026-05-07 19:28 46.13337 -68.14279 15984 ft 165 kts 209°
2026-05-07 19:29 46.12269 -68.14897 15983 ft 165 kts 209°
2026-05-07 19:29 46.11205 -68.15516 15983 ft 165 kts 209°
2026-05-07 19:29 46.10149 -68.16126 15984 ft 165 kts 209°
2026-05-07 19:29 46.09086 -68.16741 15981 ft 165 kts 210°
2026-05-07 19:30 46.08024 -68.17357 15986 ft 165 kts 210°
2026-05-07 19:30 46.06959 -68.17975 15992 ft 165 kts 210°
2026-05-07 19:30 46.05896 -68.18590 15991 ft 165 kts 210°
2026-05-07 19:30 46.04835 -68.19204 15989 ft 164 kts 210°
2026-05-07 19:31 46.03773 -68.19820 15995 ft 165 kts 210°
2026-05-07 19:31 46.02704 -68.20436 15997 ft 165 kts 210°
2026-05-07 19:31 46.01639 -68.21054 16001 ft 166 kts 210°
2026-05-07 19:31 46.00565 -68.21672 15996 ft 166 kts 210°
2026-05-07 19:32 45.99496 -68.22287 15999 ft 165 kts 210°
2026-05-07 19:32 45.98433 -68.22902 15993 ft 165 kts 210°
2026-05-07 19:32 45.97729 -68.23308 16001 ft 164 kts 210°
2026-05-07 19:32 45.96665 -68.23922 16002 ft 165 kts 210°
2026-05-07 19:33 45.95602 -68.24534 16003 ft 165 kts 210°
2026-05-07 19:33 45.94535 -68.25148 16004 ft 165 kts 210°
2026-05-07 19:33 45.93475 -68.25759 16005 ft 164 kts 210°
2026-05-07 19:33 45.92414 -68.26371 16005 ft 164 kts 210°
2026-05-07 19:34 45.91359 -68.26975 16009 ft 163 kts 210°
2026-05-07 19:34 45.90308 -68.27582 16007 ft 163 kts 210°
2026-05-07 19:34 45.89251 -68.28189 16007 ft 164 kts 210°
2026-05-07 19:34 45.88194 -68.28797 16005 ft 164 kts 210°
2026-05-07 19:35 45.87133 -68.29407 16004 ft 164 kts 210°
2026-05-07 19:35 45.86080 -68.30008 16008 ft 163 kts 210°
2026-05-07 19:35 45.85026 -68.30615 16009 ft 163 kts 210°
2026-05-07 19:35 45.83975 -68.31219 16007 ft 162 kts 210°
2026-05-07 19:36 45.82923 -68.31822 16009 ft 163 kts 210°
2026-05-07 19:36 45.81871 -68.32427 16008 ft 163 kts 210°
2026-05-07 19:36 45.80808 -68.33035 16012 ft 164 kts 210°
2026-05-07 19:36 45.79743 -68.33644 16007 ft 165 kts 210°
2026-05-07 19:37 45.78674 -68.34257 16011 ft 166 kts 210°
2026-05-07 19:37 45.77601 -68.34871 16012 ft 166 kts 210°
2026-05-07 19:37 45.76531 -68.35484 16012 ft 166 kts 210°
2026-05-07 19:37 45.75454 -68.36098 16009 ft 166 kts 210°
2026-05-07 19:38 45.74385 -68.36710 16009 ft 166 kts 210°
2026-05-07 19:38 45.73315 -68.37322 16009 ft 165 kts 210°
2026-05-07 19:38 45.72248 -68.37932 16008 ft 165 kts 210°
2026-05-07 19:38 45.71182 -68.38538 16014 ft 164 kts 211°
2026-05-07 19:39 45.70126 -68.39141 16015 ft 164 kts 211°
2026-05-07 19:39 45.69066 -68.39746 16014 ft 164 kts 211°
2026-05-07 19:39 45.68003 -68.40354 16015 ft 165 kts 211°
2026-05-07 19:39 45.67658 -68.40551 16013 ft 165 kts 211°